{"data":{"norad_id":43753,"epoch":"2026-05-25T05:52:08.839200Z","epoch_age_seconds":53845,"freshness":"FRESH","line1":"1 43753U 18097C   26145.24454675  .00000109  00000+0  71292-3 0  9995","line2":"2 43753  82.5137 236.3644 0019377 107.4620 252.8579 12.42909473339425","mean_motion":12.42909473,"eccentricity":0.0019377,"inclination_deg":82.5137,"raan_deg":236.3644,"arg_perigee_deg":107.462,"mean_anomaly_deg":252.8579,"bstar":0.00071292,"rev_number":33942,"period_min":115.85719083179,"perigee_km":1479.0392245829,"apogee_km":1509.5480422596,"semimajor_km":7872.4306334212,"source":"CELESTRAK","updated_at":"2026-05-25T13:37:55.891748Z"}}